Location: Colonia Mina de C?rbuni
(46.1667°N, 22.7167°E)
Time: 07:27:00
(UTC+00:00)

Vanguard 2 - Pass Details

Date: 13 April 2024
Orbit: 552 x 2914 km, 32.9° (Epoch: 27 May)

Event Time Altitude Azimuth Distance (km) Brightness Sun altitude
Rises 08:11:28 0° 273° (W) 6,173 11.8 42.8°
Reaches altitude 10° 08:17:22 10° 260° (W) 4,749 11.4 43.6°
Maximum altitude 08:25:27 20° 220° (SW) 3,301 11.0 44.6°
Drops below altitude 10° 08:31:32 10° 177° (S) 3,419 11.5 45.3°
Sets 08:34:54 0° 160° (SSE) 4,027 11.9 45.7°
